• In France
  • List of Countries
  • For 7 days
  • Water Temperature
  • Satellite Maps
  • Weather Map
  • Weather Widgets
  • user-avatar
    Login

    Hourly Weather Vladimiro-Konstantinovka

    Today, 16 July, Monday

    Time Temperature Precipitation Wind Pressure Humidity
    00:00 +20°C° 0.5 mm 2 mps 739 mmHg 87%
    01:00 +20°C° 0.1 mm 2 mps 739 mmHg 88%
    02:00 +20°C° 0.1 mm 2 mps 739 mmHg 89%
    03:00 +19°C° 0.1 mm 2 mps 739 mmHg 90%
    04:00 +20°C° 0 mm 2 mps 739 mmHg 89%
    05:00 +20°C° 0 mm 2 mps 739 mmHg 89%
    06:00 +20°C° 0 mm 3 mps 739 mmHg 89%
    07:00 +22°C° 0 mm 3 mps 739 mmHg 83%
    08:00 +24°C° 0 mm 3 mps 739 mmHg 78%
    09:00 +26°C° 0 mm 4 mps 739 mmHg 73%
    10:00 +27°C° 0 mm 4 mps 739 mmHg 68%
    11:00 +29°C° 0 mm 4 mps 739 mmHg 62%
    12:00 +30°C° 0 mm 5 mps 738 mmHg 56%
    13:00 +30°C° 0.1 mm 5 mps 738 mmHg 55%
    14:00 +32°C° 0.1 mm 5 mps 738 mmHg 55%
    15:00 +32°C° 0.1 mm 5 mps 738 mmHg 54%
    16:00 +30°C° 0.2 mm 5 mps 738 mmHg 58%
    17:00 +29°C° 0.2 mm 4 mps 738 mmHg 63%
    18:00 +29°C° 0.2 mm 4 mps 737 mmHg 67%
    19:00 +27°C° 0.2 mm 4 mps 737 mmHg 73%
    20:00 +25°C° 0.2 mm 3 mps 737 mmHg 78%
    21:00 +24°C° 0.2 mm 3 mps 737 mmHg 83%
    22:00 +22°C° 0 mm 3 mps 737 mmHg 85%
    23:00 +22°C° 0 mm 4 mps 737 mmHg 86%

    Tomorrow, 17 July, Tuesday

    Time Temperature Precipitation Wind Pressure Humidity
    00:00 +22°C° 0 mm 4 mps 737 mmHg 87%
    01:00 +21°C° 0.1 mm 4 mps 737 mmHg 87%
    02:00 +21°C° 0.1 mm 4 mps 736 mmHg 87%
    03:00 +21°C° 0.1 mm 4 mps 736 mmHg 87%
    04:00 +21°C° 0 mm 4 mps 736 mmHg 88%
    05:00 +21°C° 0 mm 5 mps 736 mmHg 90%
    06:00 +21°C° 0 mm 5 mps 736 mmHg 91%
    07:00 +22°C° 0.2 mm 5 mps 736 mmHg 88%
    08:00 +23°C° 0.2 mm 5 mps 736 mmHg 85%
    09:00 +23°C° 0.2 mm 4 mps 736 mmHg 82%
    10:00 +23°C° 1.7 mm 5 mps 735 mmHg 85%
    11:00 +22°C° 1.7 mm 5 mps 735 mmHg 88%
    12:00 +22°C° 1.7 mm 5 mps 735 mmHg 91%
    13:00 +21°C° 2 mm 5 mps 735 mmHg 91%
    14:00 +21°C° 2 mm 5 mps 735 mmHg 91%
    15:00 +20°C° 2 mm 5 mps 735 mmHg 92%
    16:00 +21°C° 0.5 mm 5 mps 735 mmHg 91%
    17:00 +21°C° 0.5 mm 5 mps 735 mmHg 90%
    18:00 +21°C° 0.5 mm 5 mps 735 mmHg 90%
    19:00 +20°C° 0.4 mm 5 mps 735 mmHg 91%
    20:00 +20°C° 0.4 mm 4 mps 735 mmHg 93%
    21:00 +20°C° 0.4 mm 4 mps 735 mmHg 94%
    22:00 +20°C° 0.1 mm 4 mps 735 mmHg 95%
    23:00 +19°C° 0.1 mm 4 mps 734 mmHg 96%

    Day after tomorrow, 18 July, Wednesday

    Time Temperature Precipitation Wind Pressure Humidity
    00:00 +19°C° 0.1 mm 4 mps 734 mmHg 97%
    01:00 +19°C° 0.4 mm 3 mps 734 mmHg 97%
    02:00 +19°C° 0.4 mm 3 mps 734 mmHg 97%
    03:00 +19°C° 0.4 mm 3 mps 734 mmHg 97%
    04:00 +19°C° 0.3 mm 3 mps 734 mmHg 97%
    05:00 +19°C° 0.3 mm 3 mps 734 mmHg 96%
    06:00 +18°C° 0.3 mm 3 mps 734 mmHg 95%
    07:00 +19°C° 0 mm 3 mps 734 mmHg 91%
    08:00 +21°C° 0 mm 4 mps 735 mmHg 87%
    09:00 +22°C° 0 mm 4 mps 735 mmHg 83%
    10:00 +23°C° 0.2 mm 4 mps 735 mmHg 77%
    11:00 +25°C° 0.2 mm 4 mps 735 mmHg 71%
    12:00 +26°C° 0.2 mm 5 mps 736 mmHg 66%
    13:00 +27°C° 0.3 mm 5 mps 736 mmHg 65%
    14:00 +27°C° 0.3 mm 4 mps 736 mmHg 65%
    15:00 +27°C° 0.3 mm 4 mps 736 mmHg 64%
    16:00 +27°C° 0.3 mm 4 mps 736 mmHg 68%
    17:00 +26°C° 0.3 mm 3 mps 736 mmHg 72%
    18:00 +26°C° 0.3 mm 3 mps 736 mmHg 76%
    19:00 +24°C° 0.1 mm 3 mps 737 mmHg 80%
    20:00 +22°C° 0.1 mm 3 mps 737 mmHg 85%
    21:00 +20°C° 0.1 mm 3 mps 737 mmHg 89%
    22:00 +20°C° 0 mm 3 mps 737 mmHg 90%
    23:00 +19°C° 0 mm 3 mps 737 mmHg 92%

    19 July, Thursday

    Time Temperature Precipitation Wind Pressure Humidity
    00:00 +19°C° 0 mm 3 mps 737 mmHg 93%
    01:00 +19°C° 0 mm 3 mps 737 mmHg 93%
    02:00 +18°C° 0 mm 3 mps 737 mmHg 94%
    03:00 +18°C° 0 mm 3 mps 737 mmHg 94%
    04:00 +18°C° 0 mm 3 mps 738 mmHg 92%
    05:00 +19°C° 0 mm 3 mps 738 mmHg 91%
    06:00 +19°C° 0 mm 3 mps 738 mmHg 89%
    07:00 +21°C° 0.3 mm 3 mps 738 mmHg 84%
    08:00 +24°C° 0.3 mm 3 mps 738 mmHg 79%
    09:00 +25°C° 0.3 mm 3 mps 739 mmHg 74%
    10:00 +26°C° 0.5 mm 4 mps 739 mmHg 70%
    11:00 +27°C° 0.5 mm 4 mps 739 mmHg 65%
    12:00 +28°C° 0.5 mm 5 mps 739 mmHg 61%
    13:00 +28°C° 0.5 mm 5 mps 739 mmHg 61%
    14:00 +28°C° 0.5 mm 5 mps 739 mmHg 62%
    15:00 +28°C° 0.5 mm 5 mps 739 mmHg 63%
    16:00 +27°C° 0.8 mm 4 mps 739 mmHg 67%
    17:00 +27°C° 0.8 mm 4 mps 739 mmHg 71%
    18:00 +26°C° 0.8 mm 3 mps 739 mmHg 75%
    19:00 +25°C° 0.2 mm 3 mps 739 mmHg 79%
    20:00 +22°C° 0.2 mm 3 mps 740 mmHg 82%
    21:00 +21°C° 0.2 mm 2 mps 740 mmHg 86%
    22:00 +21°C° 0.4 mm 2 mps 740 mmHg 87%
    23:00 +20°C° 0.4 mm 2 mps 740 mmHg 89%

    20 July, Friday

    Time Temperature Precipitation Wind Pressure Humidity
    00:00 +20°C° 0.4 mm 2 mps 740 mmHg 90%
    01:00 +20°C° 0.3 mm 3 mps 740 mmHg 91%
    02:00 +20°C° 0.3 mm 3 mps 740 mmHg 91%
    03:00 +19°C° 0.3 mm 3 mps 740 mmHg 92%
    04:00 +20°C° 0.4 mm 3 mps 740 mmHg 92%
    05:00 +20°C° 0.4 mm 4 mps 740 mmHg 92%
    06:00 +20°C° 0.4 mm 4 mps 740 mmHg 92%
    07:00 +22°C° 0.1 mm 4 mps 740 mmHg 86%
    08:00 +23°C° 0.1 mm 4 mps 740 mmHg 81%
    09:00 +26°C° 0.1 mm 4 mps 740 mmHg 75%
    10:00 +27°C° 0.2 mm 4 mps 740 mmHg 70%
    11:00 +28°C° 0.2 mm 5 mps 740 mmHg 65%
    12:00 +29°C° 0.2 mm 5 mps 740 mmHg 61%
    13:00 +30°C° 0.3 mm 4 mps 740 mmHg 60%
    14:00 +30°C° 0.3 mm 4 mps 739 mmHg 59%
    15:00 +30°C° 0.3 mm 3 mps 739 mmHg 58%
    16:00 +29°C° 1.3 mm 3 mps 739 mmHg 65%
    17:00 +28°C° 1.3 mm 3 mps 739 mmHg 72%
    18:00 +27°C° 1.3 mm 3 mps 739 mmHg 79%
    19:00 +26°C° 0.2 mm 3 mps 739 mmHg 83%
    20:00 +25°C° 0.2 mm 2 mps 739 mmHg 86%
    21:00 +23°C° 0.2 mm 2 mps 739 mmHg 90%
    22:00 +23°C° 1 mm 2 mps 739 mmHg 91%
    23:00 +21°C° 1 mm 3 mps 739 mmHg 92%

    21 July, Saturday

    Time Temperature Precipitation Wind Pressure Humidity
    00:00 +21°C° 1 mm 3 mps 739 mmHg 94%
    01:00 +21°C° 0.2 mm 3 mps 739 mmHg 93%
    02:00 +21°C° 0.2 mm 2 mps 739 mmHg 92%
    03:00 +21°C° 0.2 mm 2 mps 739 mmHg 91%
    04:00 +21°C° 0 mm 2 mps 739 mmHg 91%
    05:00 +21°C° 0 mm 2 mps 739 mmHg 92%
    06:00 +21°C° 0 mm 2 mps 739 mmHg 93%
    07:00 +23°C° 0 mm 2 mps 739 mmHg 87%
    08:00 +25°C° 0 mm 2 mps 739 mmHg 82%
    09:00 +26°C° 0 mm 2 mps 739 mmHg 77%
    10:00 +27°C° 0.7 mm 2 mps 739 mmHg 73%
    11:00 +28°C° 0.7 mm 2 mps 739 mmHg 70%
    12:00 +29°C° 0.7 mm 3 mps 739 mmHg 66%
    13:00 +29°C° 0.4 mm 3 mps 740 mmHg 65%
    14:00 +29°C° 0.4 mm 3 mps 740 mmHg 64%
    15:00 +30°C° 0.4 mm 3 mps 740 mmHg 62%
    16:00 +29°C° 0.4 mm 2 mps 739 mmHg 65%
    17:00 +29°C° 0.4 mm 2 mps 739 mmHg 67%
    18:00 +29°C° 0.4 mm 1 mps 739 mmHg 70%
    19:00 +27°C° 0.3 mm 2 mps 739 mmHg 75%
    20:00 +25°C° 0.3 mm 2 mps 740 mmHg 80%
    21:00 +24°C° 0.3 mm 2 mps 740 mmHg 85%
    22:00 +23°C° 0 mm 2 mps 740 mmHg 87%
    23:00 +23°C° 0 mm 2 mps 739 mmHg 88%
    Show more